Location: Cran-Gévrier
(45.9039°N, 6.1012°E)
Time: 07:41:41
(UTC+00:00)

XW-2C - Visible Passes

Search period start: 06 December 2023 00:00
Search period end: 16 December 2023 00:00
Orbit: 463 x 475 km, 97.5° (Epoch: 06 December)

Date Brightness Start Highest point End Pass type
(mag) Time Alt. Az. Time Alt. Az. Time Alt. Az.
06 Dec ? 05:38:10 10° NE 05:41:15 27° E 05:44:18 10° SSE visible
06 Dec ? 17:46:53 10° SSW 17:50:10 36° W 17:53:28 10° NNW visible
07 Dec ? 05:10:17 10° ENE 05:11:56 13° E 05:13:35 10° ESE visible
07 Dec ? 17:17:29 10° SSE 17:20:59 88° WSW 17:24:33 10° NNW visible
08 Dec ? 06:12:40 10° NNE 06:16:13 76° ESE 06:19:44 10° S visible
08 Dec ? 16:48:37 10° SE 16:51:55 39° ENE 16:55:14 10° N visible
08 Dec ? 18:23:13 10° SW 18:25:14 14° W 18:27:15 10° WNW visible
09 Dec ? 05:43:47 10° NNE 05:46:59 31° E 05:50:09 10° SSE visible
09 Dec ? 16:20:25 10° ESE 16:22:56 19° ENE 16:25:27 10° NNE visible
09 Dec ? 17:52:41 10° SSW 17:55:51 31° W 17:59:02 10° NNW visible
10 Dec ? 05:15:33 10° NE 05:17:36 15° E 05:19:38 10° SE visible
10 Dec ? 17:23:03 10° S 17:26:34 75° WSW 17:30:07 10° NNW visible
11 Dec ? 06:18:11 10° NNE 06:21:44 88° ESE 06:25:15 10° SSW visible
11 Dec ? 16:54:00 10° SE 16:57:23 45° ENE 17:00:47 10° N visible
11 Dec ? 18:29:08 10° WSW 18:30:44 13° W 18:32:22 10° WNW visible
12 Dec ? 05:49:08 10° NNE 05:52:26 36° E 05:55:42 10° SSE visible
12 Dec ? 16:25:34 10° ESE 16:28:17 21° ENE 16:31:00 10° NNE visible
12 Dec ? 17:58:13 10° SSW 18:01:15 27° W 18:04:20 10° NW visible
13 Dec ? 05:20:38 10° NE 05:22:59 17° E 05:25:18 10° SE visible
13 Dec ? 17:28:22 10° S 17:31:52 64° W 17:35:24 10° NNW visible
14 Dec ? 06:23:26 10° N 06:26:59 80° WNW 06:30:29 10° SSW visible
14 Dec ? 16:59:09 10° SSE 17:02:34 52° ENE 17:06:02 10° N visible
14 Dec ? 18:34:56 10° WSW 18:36:00 11° W 18:37:03 10° WNW visible
15 Dec ? 05:54:14 10° NNE 05:57:37 41° E 06:00:57 10° S visible
15 Dec ? 16:30:31 10° ESE 16:33:22 23° ENE 16:36:14 10° NNE visible
15 Dec ? 18:03:30 10° SSW 18:06:24 24° W 18:09:20 10° NW visible
